Tracking 30995 objects as of 7-Jul-2025
HD Live streaming from Space Station
objects crossing your sky now

NAVSTAR 9 (USA 1)

Track NAVSTAR 9 (USA 1) now!
NAVSTAR 9 (USA 1) is classified as:


NORAD ID: 15039
Int'l Code: 1984-059A
Perigee: 20,297.4 km
Apogee: 21,591.9 km
Inclination: 63.3 °
Period: 748.8 minutes
Semi major axis: 27315 km
RCS: 0.4653 m2 (medium)
Launch date: June 13, 1984
Source: United States (US)
Launch site: AIR FORCE WESTERN TEST RANGE (AFWTR)
Your satellite tracking list
OV1-5 DEB
Track 1 satellite(s)




NASA's NSSDC Master Catalog

Two Line Element Set (TLE):
1 15039U 84059A   25186.26127030 -.00000064  00000-0  00000-0 0  9998
2 15039  63.3254  74.3010 0236950  52.4816 117.7770  1.92302868291459
Source of the keplerian elements: AFSPC